Location: Newark
(23.3970°S, 47.6010°W)
Time: 15:08:21
(UTC+00:00)

Explorer 11/Cluster Stage 4 - Visible Passes

Search period start: 26 February 2020 00:00
Search period end: 07 March 2020 00:00
Orbit: 467 x 1259 km, 28.8° (Epoch: 25 February)

Date Brightness Start Highest point End Pass type
(mag) Time Alt. Az. Time Alt. Az. Time Alt. Az.
26 Feb 9.3 22:18:22 10° W 22:24:19 22° NNW 22:30:12 10° NNE visible
27 Feb 9.5 22:08:06 10° WNW 22:13:22 19° NNW 22:18:41 10° N visible
28 Feb 9.6 21:58:04 10° WNW 22:02:28 16° NNW 22:06:55 10° N visible
06 Mar 8.4 08:05:10 10° N 08:06:37 12° NNE 08:08:02 10° NE visible
